Location: Palomar Mountain Lodge
(33.3110°N, 116.8495°W)
Time: 17:21:21
(UTC-07:00)

OAO 2 Rocket - Pass Details

Date: 19 May 2017
Orbit: 676 x 747 km, 35.0° (Epoch: 22 September)

Event Time Altitude Azimuth Distance (km) Brightness Sun altitude
Rises 22:00:12 0° 251° (WSW) 3,027 6.9 -23.9°
Reaches altitude 10° 22:02:34 10° 249° (WSW) 2,121 6.0 -24.2°
Enters shadow 22:07:11 73° 209° (SSW) 723 3.2 -24.9°
